Zurück zum Katalog

FENGYUN 1C DEB

LostPO
NORAD 38716·DEBRIS·🇨🇳 China

Gestartet May 10, 1999 von Taiyuan Satellite Launch Center

Loading…

Nächste Überflüge (nächste 24 Stunden)

TLE

VeraltetSource: Space-Track

Epoche: Aug 11, 2022, 05:03 UTC

1 38716U 99025ETH 22223.21044345  .00000915  00000-0  96685-3 0  9996
2 38716  98.4169 211.9977 0273515 358.5887   1.4459 13.61652578640385

Verfolge FENGYUN 1C DEB in Echtzeit mit AllMySat

Download on the App Store